GW0774 Weather Reports


Display with metric or nautical units.
time (UTC)temp
F
wind
direction
speed
MPH
gust
MPH
rain 1hr
in
rain 24hr
in
rain mn
in
humidity
%
barometer
mb
20260831000538 57 307 20.0 39.0 0.00 0.00 0.00 77 999.9
20260831000054 58 261 17.0 48.0 0.00 0.00 0.00 76 999.9
20260830235540 58 259 28.0 48.0 0.00 0.00 0.00 75 999.8
20260830235039 58 263 19.0 36.0 0.00 0.00 0.00 79 1000.0
20260830234549 58 18 20.0 40.0 0.00 0.00 0.00 78 999.9
20260830234039 58 259 24.0 40.0 0.00 0.00 0.00 78 999.6
20260830233542 58 302 24.0 40.0 0.00 0.00 0.00 78 999.8
20260830233047 58 288 14.0 33.0 0.00 0.00 0.00 79 999.9
20260830232539 58 314 18.0 33.0 0.00 0.00 0.00 78 1000.1
20260830232038 58 300 19.0 35.0 0.00 0.00 0.00 77 1000.0
20260830231558 58 296 18.0 43.0 0.00 0.00 0.00 77 1000.0
20260830231036 59 254 24.0 43.0 0.00 0.00 0.00 75 1000.0
20260830230536 59 297 15.0 34.0 0.00 0.00 0.00 78 999.8
20260830230052 58 290 14.0 41.0 0.00 0.00 0.00 77 1000.2
20260830225540 58 250 19.0 41.0 0.00 0.00 0.00 77 1000.2
20260830225040 58 288 21.0 34.0 0.00 0.00 0.00 78 1000.3
20260830224548 57 267 15.0 31.0 0.00 0.00 0.00 81 1000.6
20260830224040 57 284 14.0 29.0 0.00 0.00 0.00 81 1000.5
20260830223540 57 272 17.0 30.0 0.00 0.00 0.00 81 1000.6
20260830223056 57 254 15.0 30.0 0.00 0.00 0.00 82 1000.8
20260830222539 56 271 18.0 30.0 0.00 0.00 0.00 82 1000.8
20260830222036 56 298 17.0 30.0 0.00 0.00 0.00 83 1000.8
20260830221555 56 292 16.0 33.0 0.00 0.00 0.00 81 1000.9
20260830221040 56 262 15.0 33.0 0.00 0.00 0.00 80 1001.0
20260830220540 56 307 16.0 37.0 0.00 0.00 0.00 81 1000.8
20260830220052 56 247 17.0 39.0 0.00 0.00 0.00 81 1000.8
20260830215539 56 285 20.0 39.0 0.00 0.00 0.00 81 1000.4
20260830215043 56 295 19.0 35.0 0.00 0.00 0.00 80 1000.1
20260830214557 57 251 19.0 35.0 0.00 0.00 0.00 81 1000.0
20260830214041 57 252 16.0 34.0 0.00 0.00 0.00 83 1000.2
20260830213540 57 267 22.0 34.0 0.00 0.00 0.00 82 1000.2
20260830213049 56 266 17.0 35.0 0.00 0.00 0.00 82 1000.2
20260830212540 56 282 20.0 36.0 0.00 0.00 0.00 81 1000.4
20260830212037 56 318 18.0 36.0 0.00 0.00 0.00 82 1000.2
20260830211552 56 236 19.0 32.0 0.00 0.00 0.00 82 1000.5
20260830211040 56 269 19.0 33.0 0.00 0.00 0.00 84 1000.3
20260830210540 55 320 18.0 33.0 0.00 0.00 0.00 84 1000.0
20260830205536 55 273 19.0 33.0 0.00 0.00 0.00 87 1000.1
20260830205042 54 273 21.0 41.0 0.00 0.00 0.00 87 1000.0
20260830204555 55 245 22.0 41.0 0.00 0.00 0.00 85 999.9
20260830204039 56 311 20.0 32.0 0.00 0.00 0.00 85 999.8
20260830203541 55 262 19.0 35.0 0.00 0.00 0.00 84 999.4
20260830203052 55 295 20.0 35.0 0.00 0.00 0.00 85 999.7
20260830202541 55 265 22.0 37.0 0.00 0.00 0.00 87 999.9
20260830202040 54 250 21.0 37.0 0.00 0.00 0.00 88 1000.2
20260830201607 54 273 16.0 28.0 0.00 0.00 0.00 89 1000.5
20260830201039 55 292 16.0 28.0 0.00 0.00 0.00 86 1000.6
20260830200539 55 278 17.0 33.0 0.00 0.00 0.00 84 1000.8
20260830200100 55 306 17.0 33.0 0.00 0.00 0.00 83 1000.8
20260830195536 55 263 17.0 29.0 0.00 0.00 0.00 84 1000.7
20260830195036 55 268 11.0 24.0 0.00 0.00 0.00 84 1001.0
20260830194601 55 277 13.0 29.0 0.00 0.00 0.00 83 1001.1
20260830194040 55 248 13.0 29.0 0.00 0.00 0.00 80 1001.2
20260830193543 55 239 14.0 29.0 0.00 0.00 0.00 80 1001.4
20260830193049 55 232 12.0 24.0 0.00 0.00 0.00 81 1001.4
20260830192536 55 240 13.0 24.0 0.00 0.00 0.00 81 1001.3
20260830192040 55 284 13.0 21.0 0.00 0.00 0.00 81 1001.0
20260830191601 54 290 11.0 23.0 0.00 0.00 0.00 82 1001.0
20260830191040 54 290 12.0 25.0 0.00 0.00 0.00 82 1000.9
20260830190536 54 288 14.0 25.0 0.00 0.00 0.00 81 1000.5
20260830190112 54 252 15.0 25.0 0.00 0.00 0.00 81 1000.4
20260830185541 54 266 11.0 22.0 0.00 0.00 0.00 81 1000.5
20260830185040 54 275 12.0 22.0 0.00 0.00 0.00 81 1000.5
20260830184559 54 275 13.0 26.0 0.00 0.00 0.00 80 1000.6
20260830184040 54 292 14.0 26.0 0.00 0.00 0.00 81 1000.3
20260830183539 54 272 11.0 26.0 0.00 0.00 0.00 82 1000.3
20260830183049 54 244 15.0 26.0 0.00 0.00 0.00 81 1000.3
20260830182544 54 252 14.0 29.0 0.00 0.00 0.00 81 1000.2
20260830182044 54 298 14.0 29.0 0.00 0.00 0.00 81 1000.3
20260830181559 53 236 12.0 24.0 0.00 0.00 0.00 82 1000.4
20260830181040 53 278 12.0 24.0 0.00 0.00 0.00 82 1000.3
20260830180543 53 242 13.0 24.0 0.00 0.00 0.00 82 1000.4
20260830180105 53 305 14.0 26.0 0.00 0.00 0.00 82 1000.4
20260830175540 53 248 13.0 27.0 0.00 0.00 0.00 82 1000.6
20260830175040 53 240 13.0 27.0 0.00 0.00 0.00 83 1000.5
20260830174554 53 278 12.0 22.0 0.00 0.00 0.00 83 1000.4
20260830174043 53 257 13.0 22.0 0.00 0.00 0.00 82 1000.5
20260830173543 53 254 12.0 21.0 0.00 0.00 0.00 82 1000.5
20260830173117 54 277 12.0 23.0 0.00 0.00 0.00 82 1000.3
20260830172540 53 264 12.0 23.0 0.00 0.00 0.00 82 1000.2
20260830172039 53 263 14.0 23.0 0.00 0.00 0.00 82 1000.0
20260830171607 53 300 10.0 25.0 0.00 0.00 0.00 82 1000.1
20260830171039 53 271 14.0 26.0 0.00 0.00 0.00 81 999.7
20260830170540 53 236 12.0 27.0 0.00 0.00 0.00 81 999.4
20260830170053 53 294 14.0 27.0 0.00 0.00 0.00 81 999.5
20260830165539 53 256 11.0 26.0 0.00 0.00 0.00 82 999.6
20260830165039 54 244 9.0 23.0 0.00 0.00 0.00 81 999.6
20260830164557 54 263 11.0 24.0 0.00 0.00 0.00 80 999.9
20260830164039 54 257 12.0 26.0 0.00 0.00 0.00 80 1000.1
20260830163540 54 295 13.0 26.0 0.00 0.00 0.00 79 1000.3
20260830163053 54 247 13.0 23.0 0.00 0.00 0.00 79 1000.1
20260830162539 54 250 14.0 23.0 0.00 0.00 0.00 79 1000.1
20260830162039 54 233 13.0 26.0 0.00 0.00 0.00 79 1000.2
20260830161602 54 259 14.0 27.0 0.00 0.00 0.00 78 1000.0
20260830161039 54 245 15.0 28.0 0.00 0.00 0.00 79 1000.1
20260830160539 54 241 14.0 28.0 0.00 0.00 0.00 80 1000.0
20260830160107 54 288 10.0 21.0 0.00 0.00 0.00 81 999.8
20260830155539 54 280 11.0 21.0 0.00 0.00 0.00 81 1000.0
20260830155043 54 281 12.0 24.0 0.00 0.00 0.00 80 1000.0
20260830154556 53 258 14.0 24.0 0.00 0.00 0.00 80 1000.1
20260830154040 53 254 13.0 23.0 0.00 0.00 0.00 81 1000.1
20260830153539 53 225 12.0 28.0 0.00 0.00 0.00 82 1000.0
20260830153055 53 264 14.0 29.0 0.00 0.00 0.00 82 999.9
20260830152539 53 265 12.0 29.0 0.00 0.00 0.00 83 999.9
20260830152040 53 292 14.0 24.0 0.00 0.00 0.00 83 999.9
20260830151602 53 262 14.0 24.0 0.00 0.00 0.00 82 999.8
20260830151040 53 241 14.0 24.0 0.00 0.00 0.00 82 999.7
20260830150540 53 248 14.0 24.0 0.00 0.00 0.00 82 999.8
20260830150104 53 271 11.0 25.0 0.00 0.00 0.00 82 999.8
20260830145539 53 246 13.0 25.0 0.00 0.00 0.00 83 999.8
20260830145044 53 252 11.0 21.0 0.00 0.00 0.00 83 999.7
20260830144600 53 264 11.0 21.0 0.00 0.00 0.00 84 999.6
20260830144040 53 295 12.0 21.0 0.00 0.00 0.00 83 999.6
20260830143540 53 245 12.0 20.0 0.00 0.00 0.00 84 999.6
20260830143051 53 246 10.0 18.0 0.00 0.00 0.00 84 999.9
20260830142542 53 249 10.0 19.0 0.00 0.00 0.00 85 999.8
20260830142039 53 247 10.0 19.0 0.00 0.00 0.00 84 1000.0
20260830141558 53 344 11.0 19.0 0.00 0.00 0.00 85 1000.1
20260830141039 53 323 10.0 19.0 0.00 0.00 0.00 84 1000.1
20260830140538 53 248 9.0 21.0 0.00 0.00 0.00 84 1000.2
20260830140106 53 296 12.0 21.0 0.00 0.00 0.00 84 1000.2
20260830135538 53 247 10.0 21.0 0.00 0.00 0.00 84 1000.2
20260830135038 53 294 13.0 21.0 0.00 0.00 0.00 84 1000.2
20260830134559 53 285 10.0 20.0 0.00 0.00 0.00 85 1000.2
20260830134037 53 247 12.0 19.0 0.00 0.00 0.00 85 1000.2
20260830133539 53 242 9.0 19.0 0.00 0.00 0.00 85 1000.2
20260830133051 52 293 9.0 16.0 0.00 0.00 0.00 85 1000.2
20260830132538 52 241 7.0 13.0 0.00 0.00 0.00 87 1000.3
20260830132038 52 267 6.0 12.0 0.00 0.00 0.00 88 1000.2
20260830131602 52 240 6.0 12.0 0.00 0.00 0.00 88 1000.3
20260830131039 52 248 5.0 11.0 0.00 0.00 0.00 87 1000.3
20260830130539 52 253 5.0 12.0 0.00 0.00 0.00 86 1000.3
20260830125538 52 263 8.0 14.0 0.00 0.00 0.00 85 1000.3
20260830125038 53 242 7.0 14.0 0.00 0.00 0.00 85 1000.3
20260830124553 53 266 8.0 14.0 0.00 0.00 0.00 85 1000.2
20260830124038 53 279 8.0 16.0 0.00 0.00 0.00 84 1000.3
20260830123539 53 257 8.0 16.0 0.00 0.00 0.00 84 1000.4
20260830123049 53 304 8.0 15.0 0.00 0.00 0.00 83 1000.3
20260830122540 53 311 9.0 17.0 0.00 0.00 0.00 83 1000.3
20260830122040 53 252 8.0 17.0 0.00 0.00 0.00 83 1000.2
20260830121600 53 277 11.0 17.0 0.00 0.00 0.00 84 1000.2
20260830121038 53 286 9.0 16.0 0.00 0.00 0.00 84 1000.1
20260830120539 53 288 9.0 16.0 0.00 0.00 0.00 84 1000.1
20260830115538 54 263 9.0 24.0 0.00 0.00 0.00 84 1000.2
20260830115037 54 268 13.0 24.0 0.00 0.00 0.00 84 1000.0
20260830114557 54 273 12.0 23.0 0.00 0.00 0.00 85 1000.0
20260830114037 54 242 13.0 23.0 0.00 0.00 0.00 86 1000.1
20260830113538 54 286 12.0 17.0 0.00 0.00 0.00 87 1000.2
20260830113102 54 273 9.0 17.0 0.00 0.00 0.00 87 1000.2
20260830112538 54 275 8.0 18.0 0.00 0.00 0.00 87 1000.1
20260830112039 54 259 11.0 18.0 0.00 0.00 0.00 88 1000.2
20260830111600 54 300 10.0 16.0 0.00 0.00 0.00 88 1000.1
20260830111039 54 289 7.0 18.0 0.00 0.00 0.00 87 1000.2
20260830110539 54 229 9.0 23.0 0.00 0.00 0.00 87 1000.2
20260830105546 54 280 11.0 23.0 0.00 0.00 0.00 87 1000.2
20260830105038 54 258 14.0 24.0 0.00 0.00 0.00 87 1000.1
20260830104551 54 277 14.0 25.0 0.00 0.00 0.00 88 1000.0
20260830104039 54 282 14.0 25.0 0.00 0.00 0.00 88 1000.0
20260830103539 54 263 14.0 24.0 0.00 0.00 0.00 88 1000.0
20260830103050 54 279 11.0 20.0 0.00 0.00 0.00 88 1000.0
20260830102542 54 270 13.0 19.0 0.00 0.00 0.00 88 1000.0
20260830102038 54 317 14.0 24.0 0.00 0.00 0.00 88 999.8
20260830101558 54 248 14.0 24.0 0.00 0.00 0.00 88 999.6
20260830101039 54 268 12.0 20.0 0.00 0.00 0.00 89 999.5
20260830100539 54 267 12.0 23.0 0.00 0.00 0.00 89 999.5
20260830100056 55 284 14.0 23.0 0.00 0.00 0.00 89 999.5
20260830095537 55 290 13.0 21.0 0.00 0.00 0.00 89 999.5
20260830095041 55 277 11.0 19.0 0.00 0.00 0.00 89 999.4
20260830094602 55 285 10.0 19.0 0.00 0.00 0.00 89 999.3
20260830094036 55 269 13.0 19.0 0.00 0.00 0.00 88 999.4
20260830093542 55 259 13.0 22.0 0.00 0.00 0.00 89 999.3
20260830093058 55 288 11.0 22.0 0.00 0.00 0.00 88 999.1
20260830092541 55 282 11.0 23.0 0.00 0.00 0.00 88 999.1
20260830092038 55 281 13.0 25.0 0.00 0.00 0.00 88 999.1
20260830091558 55 266 12.0 25.0 0.00 0.00 0.00 88 998.9
20260830091039 55 280 15.0 25.0 0.00 0.00 0.00 87 998.6
20260830090540 55 276 14.0 22.0 0.00 0.00 0.00 86 999.0
20260830090107 55 302 15.0 28.0 0.00 0.00 0.00 86 999.3
20260830085539 56 281 19.0 32.0 0.00 0.00 0.00 85 999.2
20260830085038 56 301 18.0 32.0 0.00 0.00 0.00 85 999.1
20260830084559 55 270 18.0 30.0 0.00 0.00 0.00 85 999.1
20260830084041 55 284 17.0 30.0 0.00 0.00 0.00 85 999.1
20260830083538 55 302 17.0 30.0 0.00 0.00 0.00 84 999.3
20260830083056 55 289 14.0 29.0 0.00 0.00 0.00 84 999.3
20260830082538 55 298 20.0 29.0 0.00 0.00 0.00 84 999.2
20260830082038 55 259 16.0 28.0 0.00 0.00 0.00 85 999.3
20260830081549 55 259 15.0 24.0 0.00 0.00 0.00 85 999.4
20260830081038 55 285 16.0 24.0 0.00 0.00 0.00 85 999.4
20260830080538 55 331 16.0 31.0 0.00 0.00 0.00 85 999.3
20260830075537 55 263 16.0 29.0 0.00 0.00 0.00 85 999.1
20260830075039 55 257 20.0 29.0 0.00 0.00 0.00 85 998.9
20260830074603 55 282 16.0 35.0 0.00 0.00 0.00 85 998.7
20260830074038 55 263 14.0 35.0 0.00 0.00 0.00 85 998.7
20260830073538 55 294 14.0 33.0 0.00 0.00 0.00 85 998.5
20260830073057 55 244 17.0 33.0 0.00 0.00 0.00 85 998.5
20260830072538 55 286 11.0 31.0 0.00 0.00 0.00 85 998.4
20260830072043 55 288 13.0 29.0 0.00 0.00 0.00 85 998.5
20260830071558 56 271 13.0 29.0 0.00 0.00 0.00 85 998.6
20260830071039 56 278 14.0 26.0 0.00 0.00 0.00 85 998.6
20260830070542 56 255 12.0 24.0 0.00 0.00 0.00 85 998.5
20260830070058 56 297 14.0 25.0 0.00 0.00 0.00 85 998.7
20260830065539 56 241 11.0 25.0 0.00 0.00 0.00 85 998.4
20260830065039 56 273 14.0 28.0 0.00 0.00 0.00 84 998.4
20260830064605 56 248 13.0 30.0 0.00 0.00 0.00 84 998.3
20260830064039 55 292 14.0 30.0 0.00 0.00 0.00 85 998.5
20260830063538 55 270 12.0 25.0 0.00 0.00 0.00 87 998.5
20260830063059 55 295 16.0 27.0 0.00 0.00 0.00 86 998.6
20260830062538 55 273 15.0 27.0 0.00 0.00 0.00 87 998.6
20260830062038 55 275 15.0 26.0 0.00 0.00 0.00 89 998.5
20260830061556 55 280 17.0 26.0 0.00 0.00 0.00 88 998.4
20260830061039 55 292 16.0 27.0 0.00 0.00 0.00 88 998.3
20260830060538 55 304 16.0 27.0 0.00 0.00 0.00 87 998.2
20260830060100 56 268 17.0 33.0 0.00 0.00 0.00 86 998.3
20260830055537 56 286 17.0 33.0 0.00 0.00 0.00 87 998.3
20260830055040 56 274 19.0 30.0 0.00 0.00 0.00 87 998.0
20260830054601 56 289 18.0 34.0 0.00 0.00 0.00 86 998.0
20260830054038 56 288 21.0 34.0 0.00 0.00 0.00 86 998.2
20260830053537 56 261 16.0 26.0 0.00 0.00 0.00 86 998.5
20260830053059 56 263 15.0 32.0 0.00 0.00 0.00 85 998.8
20260830052538 56 248 16.0 32.0 0.00 0.00 0.00 85 998.7
20260830052039 56 246 17.0 33.0 0.00 0.00 0.00 85 998.1
20260830051554 56 241 17.0 35.0 0.00 0.00 0.00 85 998.3
20260830051038 57 267 15.0 36.0 0.00 0.00 0.00 85 998.0
20260830050540 57 295 22.0 40.0 0.00 0.00 0.00 85 997.7
20260830050054 57 284 21.0 40.0 0.00 0.00 0.00 86 997.8
20260830045542 57 272 21.0 38.0 0.00 0.00 0.00 86 997.5
20260830045039 57 290 22.0 38.0 0.00 0.00 0.00 86 997.4
20260830044606 57 254 16.0 34.0 0.00 0.00 0.00 86 997.6
20260830044039 57 291 18.0 37.0 0.00 0.00 0.00 86 997.7
20260830043542 57 269 18.0 37.0 0.00 0.00 0.00 85 997.3
20260830043059 57 294 17.0 37.0 0.00 0.00 0.00 85 997.8
20260830042543 57 273 21.0 37.0 0.00 0.00 0.00 84 997.8
20260830042040 57 280 20.0 34.0 0.00 0.00 0.00 84 997.9
20260830041556 58 273 15.0 31.0 0.00 0.00 0.00 84 998.1
20260830041039 58 298 13.0 27.0 0.00 0.00 0.00 83 998.5
20260830040539 58 295 12.0 26.0 0.00 0.00 0.00 85 998.8
20260830040056 57 261 12.0 27.0 0.00 0.00 0.00 85 999.4
20260830035541 57 262 14.0 27.0 0.00 0.00 0.00 85 999.2
20260830035041 57 274 15.0 25.0 0.00 0.00 0.00 84 999.2
20260830034549 57 271 13.0 33.0 0.00 0.00 0.00 84 999.0
20260830034041 57 248 17.0 33.0 0.00 0.00 0.00 83 998.7
20260830033542 58 245 16.0 32.0 0.00 0.00 0.00 82 998.5
20260830033100 58 299 14.0 30.0 0.00 0.00 0.00 84 998.9
20260830032540 58 254 16.0 33.0 0.00 0.00 0.00 84 998.9
20260830032040 58 240 13.0 33.0 0.00 0.00 0.00 84 998.7
20260830031556 58 266 14.0 33.0 0.00 0.00 0.00 84 998.6
20260830031040 58 318 17.0 33.0 0.00 0.00 0.00 82 998.3
20260830030543 58 278 15.0 28.0 0.00 0.00 0.00 83 998.6
20260830030050 58 306 19.0 30.0 0.00 0.00 0.00 83 998.9
20260830025539 58 258 14.0 30.0 0.00 0.00 0.00 83 999.0
20260830025039 58 296 16.0 29.0 0.00 0.00 0.00 83 998.8
20260830024557 58 274 15.0 25.0 0.00 0.00 0.00 82 999.0
20260830024039 58 273 13.0 32.0 0.00 0.00 0.00 83 999.0
20260830023540 58 256 17.0 32.0 0.00 0.00 0.00 82 998.9
20260830023059 58 244 14.0 28.0 0.00 0.00 0.00 83 999.0
20260830022541 58 284 14.0 26.0 0.00 0.00 0.00 84 999.0
20260830022041 58 236 16.0 26.0 0.00 0.00 0.00 83 998.8
20260830021556 58 236 14.0 26.0 0.00 0.00 0.00 84 998.9
20260830021040 57 303 12.0 27.0 0.00 0.00 0.00 84 999.2
20260830020544 57 280 14.0 27.0 0.00 0.00 0.00 83 999.3
20260830020054 57 282 11.0 26.0 0.00 0.00 0.00 84 999.3
20260830015540 57 303 13.0 27.0 0.00 0.00 0.00 83 999.4
20260830015040 58 270 12.0 27.0 0.00 0.00 0.00 84 999.4
20260830014551 58 237 11.0 22.0 0.00 0.00 0.00 85 999.5
20260830014041 57 292 14.0 27.0 0.00 0.00 0.00 83 999.6
20260830013542 58 250 14.0 27.0 0.00 0.00 0.00 84 999.7
20260830013101 58 249 11.0 24.0 0.00 0.00 0.00 84 999.8
20260830012536 58 240 12.0 24.0 0.00 0.00 0.00 84 999.8
20260830012040 58 241 12.0 24.0 0.00 0.00 0.00 84 1000.0
20260830011611 59 247 14.0 25.0 0.00 0.00 0.00 82 999.9
20260830011041 59 254 15.0 25.0 0.00 0.00 0.00 83 999.8
20260830010540 59 289 12.0 30.0 0.00 0.00 0.00 82 999.7
20260830010051 59 252 17.0 30.0 0.00 0.00 0.00 82 999.7
20260830005540 60 284 14.0 29.0 0.00 0.00 0.00 80 999.5
20260830005039 60 267 11.0 24.0 0.00 0.00 0.00 82 999.6
20260830004612 60 313 12.0 24.0 0.00 0.00 0.00 80 999.6
20260830004037 60 292 11.0 20.0 0.00 0.00 0.00 81 999.7
20260830003539 60 242 9.0 20.0 0.00 0.00 0.00 80 999.8
20260830003100 60 317 10.0 20.0 0.00 0.00 0.00 81 999.9
20260830002541 60 265 9.0 16.0 0.00 0.00 0.00 81 1000.2
20260830002040 60 295 9.0 16.0 0.00 0.00 0.00 81 1000.5
20260830001600 61 300 10.0 18.0 0.00 0.00 0.00 82 1000.6
20260830001040 61 248 10.0 18.0 0.00 0.00 0.00 81 1000.7